[[{"header":{"parameterUnit":"m.s-1","parameterCategory":2,"la1":30.2992,"la2":30.254,"lo1":-89.0895,"lo2":-89.0443,"dy":0.0025,"dx":0.0025,"nx":19,"ny":19,"refTime":"2026-05-23T03:00:00:Z","depth":"0","parameterNumber":2,"parameterNumberName":"U-component_of_CURRENTS"},"data":[0,0,0,0.1982,0.1981,0.1969,0.1969,0.2021,0.2022,0,0,0,0,0,0,0,0,0,0,0,0.1992,0.1992,0.1982,0.1981,0.1969,0.1969,0.2021,0.2022,0,0,0,0,0,0,0,0,0,0,0,0.1992,0.1992,0.1992,0.1981,0.1969,0.1969,0.2021,0.2015,0,0,0,0,0,0,0,0,0,0,0.2019,0.2029,0.1992,0.1992,0.1981,0.1969,0.1969,0.2014,0.2015,0.2044,0,0.204,0,0.2028,0.2026,0.2026,0,0,0,0.1988,0.2028,0.201,0.1992,0.1981,0.1969,0.1976,0.2014,0.2016,0.2046,0.204,0.2041,0.2029,0.2026,0.2027,0.2118,0.2118,0,0,0.1989,0.2007,0.2008,0.201,0.1976,0.1977,0.1976,0.2014,0.2026,0.204,0.2042,0.203,0.2027,0.2027,0.2117,0.2118,0,0,0,0.1986,0.2007,0.1987,0.2009,0.1999,0.1976,0.1975,0.2025,0.2014,0.2042,0.203,0.2027,0.2028,0.2116,0.2117,0.2224,0,0,0,0.1987,0.2005,0.1988,0.2001,0.1998,0.2006,0.1985,0.2011,0.2015,0.203,0.2027,0.2029,0.2116,0.2117,0.222,0.223,0,0,0,0.1993,0.2006,0.2,0.2001,0.199,0.2004,0.1996,0.2011,0.2008,0.2026,0.2029,0.2116,0.2117,0.2216,0.2225,0.2278,0,0,0,0.2017,0.2026,0.2001,0.2014,0.199,0.2001,0.1995,0.2006,0.2021,0.2028,0.2116,0.2117,0.2215,0.2222,0.2275,0.2169,0.2177,0,0,0.2041,0.203,0.2036,0.2013,0.202,0.2003,0.2057,0.2065,0.2054,0.2108,0.211,0.2221,0.2224,0.2278,0.2238,0.2244,0,0,0,0.2052,0.2051,0.2052,0.2049,0.2048,0.2081,0.2079,0.2114,0.217,0.2066,0.2215,0.2213,0.2244,0.2172,0.2177,0.1947,0.2123,0.2123,0.2122,0.211,0.209,0.21,0.2082,0.2102,0.214,0.2194,0.2239,0.2222,0.2268,0.2298,0.2401,0.2327,0.2329,0.2095,0.2314,0.2314,0.2314,0.2315,0.2138,0.2139,0.2129,0.2127,0.2158,0.2204,0.2313,0.2341,0.2441,0.2398,0.2425,0.2284,0.2341,0.2088,0.2321,0.232,0.2319,0.2319,0.2318,0.218,0.2172,0.2161,0.2155,0.2196,0.2245,0.2332,0.2423,0.2504,0.2555,0.2451,0.2447,0.2224,0.2569,0.2569,0.2569,0.257,0.257,0.257,0.2221,0.2205,0.2187,0.2181,0.2174,0.222,0.234,0.2408,0.2495,0.2527,0.2526,0.2214,0.2478,0.2467,0.2575,0.2574,0.2573,0.2573,0.2573,0.2235,0.2233,0.2202,0.2182,0.2149,0.2122,0.2252,0.2336,0.2441,0.2466,0.2209,0.2517,0.2462,0.2455,0.2443,0.2538,0.2538,0.2538,0.2538,0.2246,0.2243,0.218,0.213,0.2097,0.2076,0.2045,0.2107,0.2116,0.2043,0.2067,0.1956,0.1968,0.1878,0.1884,0.1857,0.1801,0.18,0.1799,0.2229,0.2219,0.216,0.2102,0.2042,0.1986,0.1862,0.1737,0.1711,0.1749,0.1772,0.1804,0.1622,0.1658,0.15,0.1527,0.1477,0,0]},{"header":{"parameterUnit":"m.s-1","parameterCategory":2,"la1":30.2992,"la2":30.254,"lo1":-89.0895,"lo2":-89.0443,"dy":0.0025,"dx":0.0025,"nx":19,"ny":19,"refTime":"2026-05-23T03:00:00:Z","depth":"0","parameterNumber":3,"parameterNumberName":"V-component_of_CURRENTS"},"data":[0,0,0,-0.0196,-0.0195,-0.0151,-0.0151,-0.0022,-0.0021,0,0,0,0,0,0,0,0,0,0,0,-0.0212,-0.0212,-0.0196,-0.0195,-0.0151,-0.0151,-0.0022,-0.0021,0,0,0,0,0,0,0,0,0,0,0,-0.0212,-0.0212,-0.0212,-0.0195,-0.0151,-0.0151,-0.0022,-0.0072,0,0,0,0,0,0,0,0,0,0,-0.0123,-0.015,-0.0212,-0.0212,-0.0195,-0.0151,-0.0151,-0.0075,-0.0069,-0.0023,0,-0.0022,0,-0.0018,-0.0011,-0.001,0,0,0,-0.0189,-0.0156,-0.0145,-0.0212,-0.0195,-0.0152,-0.0169,-0.0072,-0.0065,-0.0014,-0.0021,-0.0016,-0.0016,-0.001,-0.0009,0.0199,0.02,0,0,-0.0191,-0.0198,-0.015,-0.0141,-0.0189,-0.0171,-0.0168,-0.0069,-0.0061,-0.002,-0.0013,-0.0014,-0.0009,-0.0008,0.0198,0.0199,0,0,0,-0.0203,-0.02,-0.0193,-0.0146,-0.0144,-0.017,-0.0166,-0.0065,-0.0064,-0.0012,-0.0013,-0.0008,-0.0006,0.0196,0.0198,0.034,0,0,0,-0.0204,-0.0207,-0.0194,-0.0197,-0.0146,-0.0114,-0.0165,-0.0071,-0.006,-0.0013,-0.0008,-0.0005,0.0195,0.0197,0.0333,0.0424,0,0,0,-0.0213,-0.0208,-0.0205,-0.0198,-0.0182,-0.0116,-0.0108,-0.0069,-0.0059,-0.001,-0.0004,0.0194,0.0197,0.0327,0.0413,0.0547,0,0,0,-0.0217,-0.0193,-0.0206,-0.0161,-0.0182,-0.0081,-0.0109,-0.0039,0.0009,-0.0007,0.0195,0.0198,0.0326,0.0406,0.054,0.0579,0.0618,0,0,-0.0184,-0.0189,-0.0157,-0.0167,-0.0063,-0.0087,0.0061,0.0092,0.0069,0.0166,0.017,0.0336,0.0412,0.0546,0.0742,0.0776,0,0,0,-0.0142,-0.0116,-0.0087,-0.0033,0.0022,0.0135,0.0151,0.0184,0.0268,0.0108,0.0354,0.0398,0.0478,0.0485,0.0513,0.0415,0.0211,0.0211,0.0211,-0.0092,-0.0052,0.0038,0.011,0.0189,0.0298,0.0394,0.0448,0.0389,0.0448,0.0526,0.0744,0.0753,0.0775,0.0674,0.0524,0.0525,0.0525,0.0525,-0.0001,0.0065,0.015,0.0247,0.0373,0.0502,0.0661,0.0661,0.081,0.0692,0.0761,0.0649,0.0814,0.0694,0.0535,0.0533,0.0532,0.0531,0.053,0.0035,0.0081,0.014,0.0314,0.0507,0.065,0.0891,0.0952,0.0963,0.1048,0.1047,0.1043,0.093,0.1075,0.1076,0.1077,0.1078,0.1079,0.1079,0.0049,0.012,0.0235,0.0404,0.0547,0.0779,0.1031,0.1155,0.1266,0.1242,0.1241,0.1008,0.0913,0.0881,0.1095,0.1092,0.109,0.1089,0.1088,0.0118,0.0134,0.0307,0.044,0.0768,0.1018,0.1212,0.1459,0.1559,0.1616,0.1344,0.1345,0.1314,0.1289,0.1267,0.1569,0.1569,0.1569,0.1569,0.0159,0.018,0.042,0.0644,0.0932,0.1157,0.1468,0.1633,0.1621,0.1554,0.1487,0.1331,0.1316,0.1273,0.1249,0.122,0.1504,0.1503,0.1503,0.0239,0.0296,0.0479,0.0686,0.1018,0.1299,0.1556,0.1683,0.1588,0.1486,0.1355,0.1358,0.1105,0.1089,0.0989,0.0962,0.0902,0,0]}],[{"header":{"parameterUnit":"m.s-1","parameterCategory":2,"la1":30.2992,"la2":30.254,"lo1":-89.0895,"lo2":-89.0443,"dy":0.0025,"dx":0.0025,"nx":19,"ny":19,"refTime":"2026-05-23T03:00:00:Z","depth":"2","parameterNumber":2,"parameterNumberName":"U-component_of_CURRENTS"},"data":[0,0,0,0.2133,0.2131,0.2054,0.2054,0.2085,0.2086,0,0,0,0,0,0,0,0,0,0,0,0.2153,0.2152,0.2133,0.2131,0.2054,0.2054,0.2085,0.2086,0,0,0,0,0,0,0,0,0,0,0,0.2154,0.2153,0.2151,0.213,0.2054,0.2054,0.2085,0.2113,0,0,0,0,0,0,0,0,0,0,0.2172,0.2172,0.2153,0.2151,0.213,0.2054,0.2054,0.2113,0.2111,0.2154,0,0.2125,0,0.2108,0.209,0.209,0,0,0,0.2139,0.2173,0.2149,0.2151,0.2129,0.2054,0.2091,0.2111,0.2109,0.2153,0.2125,0.2126,0.2109,0.2091,0.2091,0.2181,0.2181,0,0,0.2143,0.215,0.2149,0.2147,0.209,0.2093,0.2088,0.2108,0.2104,0.2125,0.2126,0.2109,0.2091,0.2091,0.218,0.2181,0,0,0,0.215,0.2153,0.2126,0.2147,0.2123,0.2091,0.2085,0.2103,0.2092,0.2126,0.211,0.2091,0.2092,0.218,0.2181,0.2287,0,0,0,0.2153,0.2156,0.2128,0.2133,0.2121,0.2095,0.208,0.209,0.2091,0.2109,0.2091,0.2093,0.2179,0.218,0.2283,0.2292,0,0,0,0.216,0.2158,0.2141,0.2133,0.2096,0.2094,0.2083,0.2089,0.2083,0.209,0.2093,0.2179,0.218,0.2279,0.2287,0.2342,0,0,0,0.2182,0.2159,0.2141,0.2118,0.2096,0.209,0.2083,0.2078,0.2083,0.2092,0.2179,0.218,0.2278,0.2284,0.2338,0.2198,0.2203,0,0,0.2172,0.2158,0.2149,0.213,0.2122,0.2102,0.2141,0.2136,0.2123,0.2182,0.2183,0.2284,0.2287,0.2341,0.2267,0.227,0,0,0,0.2159,0.2149,0.2144,0.2129,0.2122,0.2157,0.2146,0.218,0.2232,0.2128,0.2278,0.2276,0.2308,0.2215,0.2218,0.2186,0.2186,0.2186,0.2186,0.2188,0.2173,0.2165,0.2154,0.2164,0.2203,0.2255,0.2301,0.2283,0.2329,0.2361,0.2465,0.2368,0.2368,0.2376,0.2376,0.2377,0.2377,0.2377,0.2199,0.2196,0.2192,0.2178,0.222,0.2262,0.2374,0.2402,0.2503,0.246,0.2487,0.2327,0.2377,0.2386,0.2384,0.2383,0.2382,0.2381,0.2381,0.224,0.2229,0.2214,0.2206,0.225,0.2303,0.2395,0.2486,0.2567,0.2618,0.2491,0.2487,0.2518,0.2632,0.2632,0.2633,0.2633,0.2633,0.2633,0.2282,0.2262,0.224,0.2231,0.2227,0.2278,0.2404,0.2478,0.2551,0.2563,0.2562,0.2549,0.2541,0.2531,0.2638,0.2637,0.2637,0.2636,0.2636,0.2295,0.229,0.2253,0.2234,0.2206,0.2194,0.2334,0.2424,0.2514,0.2536,0.2539,0.2539,0.2482,0.2476,0.2462,0.2546,0.2546,0.2546,0.2546,0.2309,0.2303,0.2234,0.2184,0.2162,0.2155,0.2106,0.2006,0.2129,0.2063,0.2083,0.1972,0.1988,0.1896,0.1903,0.1874,0.1805,0.1803,0.1802,0.2297,0.2282,0.222,0.2158,0.2114,0.2079,0.1885,0.1509,0.1457,0.1763,0.1851,0.2516,0.2406,0.2411,0.2308,0.2305,0.2274,0,0]},{"header":{"parameterUnit":"m.s-1","parameterCategory":2,"la1":30.2992,"la2":30.254,"lo1":-89.0895,"lo2":-89.0443,"dy":0.0025,"dx":0.0025,"nx":19,"ny":19,"refTime":"2026-05-23T03:00:00:Z","depth":"2","parameterNumber":3,"parameterNumberName":"V-component_of_CURRENTS"},"data":[0,0,0,-0.0301,-0.03,-0.0222,-0.0222,-0.0085,-0.0083,0,0,0,0,0,0,0,0,0,0,0,-0.0328,-0.0327,-0.0302,-0.03,-0.0222,-0.0221,-0.0085,-0.0083,0,0,0,0,0,0,0,0,0,0,0,-0.0328,-0.0327,-0.0327,-0.0299,-0.0222,-0.0221,-0.0085,-0.0152,0,0,0,0,0,0,0,0,0,0,-0.0232,-0.0266,-0.0328,-0.0327,-0.0299,-0.0222,-0.0221,-0.0156,-0.0148,-0.011,0,-0.0099,0,-0.0088,-0.0074,-0.0073,0,0,0,-0.0296,-0.0273,-0.0249,-0.0327,-0.0298,-0.0222,-0.0256,-0.0152,-0.0143,-0.01,-0.0097,-0.0092,-0.0086,-0.0073,-0.0072,0.0134,0.0135,0,0,-0.03,-0.0313,-0.0255,-0.0244,-0.0277,-0.0258,-0.0254,-0.0147,-0.0137,-0.0097,-0.0089,-0.0083,-0.0072,-0.0071,0.0133,0.0134,0,0,0,-0.0315,-0.0316,-0.0296,-0.0249,-0.0238,-0.0256,-0.0251,-0.0142,-0.0135,-0.0088,-0.0082,-0.0071,-0.0069,0.0131,0.0133,0.0269,0,0,0,-0.0318,-0.0325,-0.0298,-0.0305,-0.024,-0.0195,-0.0249,-0.0142,-0.013,-0.0082,-0.0071,-0.0068,0.013,0.0132,0.0262,0.0348,0,0,0,-0.0331,-0.0326,-0.0317,-0.0306,-0.0273,-0.0196,-0.0183,-0.014,-0.0126,-0.0073,-0.0067,0.0129,0.0132,0.0257,0.0337,0.0467,0,0,0,-0.0348,-0.0306,-0.0317,-0.0255,-0.0274,-0.0157,-0.0184,-0.0104,-0.0053,-0.007,0.013,0.0133,0.0255,0.0331,0.0459,0.0325,0.0349,0,0,-0.0298,-0.03,-0.0258,-0.0266,-0.0148,-0.0168,-0.0014,0.0024,0.0003,0.0095,0.01,0.0265,0.0337,0.0465,0.0485,0.0504,0,0,0,-0.0242,-0.0211,-0.0176,-0.0114,-0.0049,0.006,0.0083,0.0116,0.02,0.0045,0.0283,0.0325,0.0402,0.0305,0.0321,0.0146,0.0146,0.0145,0.0145,-0.0216,-0.0158,-0.0055,0.0033,0.0116,0.0225,0.032,0.0372,0.0318,0.0375,0.0449,0.0659,0.0556,0.0567,0.0448,0.0449,0.0449,0.0449,0.045,-0.0116,-0.0045,0.0052,0.0174,0.0293,0.0423,0.0575,0.0576,0.0719,0.0608,0.0675,0.0468,0.0592,0.0461,0.0459,0.0457,0.0456,0.0455,0.0455,-0.0104,-0.0048,0.0036,0.0237,0.0424,0.0564,0.0795,0.0855,0.0866,0.0947,0.0834,0.0828,0.0757,0.0976,0.0977,0.0978,0.0979,0.0979,0.098,-0.0122,-0.0021,0.0127,0.0322,0.0463,0.0689,0.093,0.1031,0.1063,0.1004,0.1002,0.0838,0.082,0.0789,0.0995,0.0992,0.099,0.0989,0.0988,-0.0055,-0.0013,0.0195,0.0346,0.0679,0.0892,0.1069,0.1185,0.1269,0.1245,0.1033,0.1027,0.098,0.0962,0.0934,0.1167,0.1167,0.1167,0.1167,-0.002,0.002,0.0313,0.0556,0.0827,0.1016,0.1169,0.1145,0.1113,0.1018,0.1025,0.0841,0.0836,0.0771,0.0757,0.072,0.0898,0.0898,0.0898,0.0077,0.0141,0.0359,0.0596,0.0903,0.1125,0.1142,0.0982,0.086,0.089,0.1006,0.1144,0.088,0.0871,0.0765,0.0746,0.0684,0,0]}],[{"header":{"parameterUnit":"m.s-1","parameterCategory":2,"la1":30.2992,"la2":30.254,"lo1":-89.0895,"lo2":-89.0443,"dy":0.0025,"dx":0.0025,"nx":19,"ny":19,"refTime":"2026-05-23T03:00:00:Z","depth":"4","parameterNumber":2,"parameterNumberName":"U-component_of_CURRENTS"},"data":[0,0,0,0.0211,0.0214,0.0383,0.0384,0.0603,0.0605,0,0,0,0,0,0,0,0,0,0,0,0.0174,0.0176,0.0211,0.0215,0.0383,0.0384,0.0603,0.0605,0,0,0,0,0,0,0,0,0,0,0,0.0174,0.0175,0.0177,0.0215,0.0383,0.0384,0.0602,0.0477,0,0,0,0,0,0,0,0,0,0,0.0314,0.0259,0.0175,0.0177,0.0216,0.0383,0.0384,0.0471,0.0485,0.0523,0,0.0562,0,0.0574,0.0618,0.0619,0,0,0,0.0228,0.0248,0.0304,0.0178,0.0217,0.0383,0.0311,0.0479,0.0495,0.0541,0.0565,0.0573,0.0578,0.0619,0.062,0.0883,0.0885,0,0,0.0219,0.0194,0.0293,0.0314,0.0279,0.0306,0.0316,0.0489,0.0506,0.0566,0.0578,0.0582,0.0621,0.0622,0.0882,0.0884,0,0,0,0.0183,0.0187,0.024,0.0306,0.0329,0.031,0.0322,0.0499,0.052,0.058,0.0584,0.0622,0.0624,0.088,0.0882,0.0969,0,0,0,0.0178,0.0165,0.0236,0.0221,0.0326,0.041,0.0328,0.0509,0.0528,0.0583,0.0622,0.0626,0.0879,0.0881,0.0963,0.0971,0,0,0,0.0163,0.0163,0.0191,0.0219,0.0285,0.0408,0.0439,0.0513,0.053,0.0619,0.0627,0.0878,0.0881,0.0958,0.0964,0.0954,0,0,0,0.012,0.0159,0.0191,0.0241,0.0283,0.039,0.0438,0.0553,0.0636,0.0623,0.0879,0.0882,0.0956,0.0959,0.0951,0.0699,0,0,0,0.0137,0.016,0.019,0.0222,0.031,0.0366,0.0512,0.0656,0.0698,0.0821,0.0828,0.0965,0.0963,0.0953,0.0896,0,0,0,0,0.0173,0.0189,0.0224,0.0287,0.0375,0.0503,0.0628,0.071,0.089,0.0759,0.1008,0.1004,0.0994,0.0842,0.0898,0.0898,0.0897,0.0897,0.0897,0.0123,0.0185,0.024,0.0341,0.0435,0.0625,0.0739,0.088,0.0946,0.1062,0.1107,0.1202,0.1053,0.116,0.1161,0.1161,0.1161,0.1162,0.1162,0.0131,0.016,0.026,0.0362,0.0522,0.0689,0.0901,0.1009,0.1191,0.1227,0.1214,0.0987,0.1172,0.117,0.1168,0.1167,0.1166,0.1166,0.1165,0.008,0.0108,0.0204,0.036,0.0566,0.0793,0.0929,0.1132,0.1244,0.1291,0.1119,0.1239,0.1189,0.1317,0.1317,0.1317,0.1317,0.1317,0.1317,0.0015,0.0091,0.0185,0.0372,0.0505,0.0732,0.1,0.1036,0.1185,0.1173,0.1338,0.1253,0.1248,0.1197,0.1318,0.1318,0.1318,0.1318,0.1318,-0.0005,0.002,0.012,0.0232,0.0486,0.0612,0.0849,0.091,0.0935,0.091,0.1068,0.108,0.1002,0.1003,0.094,0.0989,0.0986,0.0983,0,-0.0038,-0.0022,0.0084,0.018,0.0311,0.0524,0.053,0.0614,0.075,0.0769,0.0898,0.1076,0.1085,0.0993,0.0989,0.0912,0,0,0,-0.0019,-0.0023,0.0031,0.009,0.0237,0.0368,0.0541,0.0543,0.0782,0.0672,0.0911,0.093,0.1004,0.1321,0.1229,0.1223,0.1136,0,0]},{"header":{"parameterUnit":"m.s-1","parameterCategory":2,"la1":30.2992,"la2":30.254,"lo1":-89.0895,"lo2":-89.0443,"dy":0.0025,"dx":0.0025,"nx":19,"ny":19,"refTime":"2026-05-23T03:00:00:Z","depth":"4","parameterNumber":3,"parameterNumberName":"V-component_of_CURRENTS"},"data":[0,0,0,0.0398,0.0399,0.0463,0.0464,0.0452,0.0451,0,0,0,0,0,0,0,0,0,0,0,0.0385,0.0385,0.0398,0.0399,0.0463,0.0464,0.0452,0.0451,0,0,0,0,0,0,0,0,0,0,0,0.0384,0.0385,0.0385,0.04,0.0463,0.0464,0.0452,0.0431,0,0,0,0,0,0,0,0,0,0,0.0382,0.0387,0.0385,0.0385,0.04,0.0463,0.0464,0.0431,0.0432,0.0391,0,0.0401,0,0.0412,0.0447,0.0446,0,0,0,0.0415,0.0387,0.0388,0.0385,0.04,0.0463,0.0439,0.0432,0.0433,0.0392,0.0401,0.0401,0.0412,0.0446,0.0446,0.0394,0.0394,0,0,0.0411,0.0409,0.0388,0.0389,0.0413,0.0437,0.0441,0.0434,0.044,0.0401,0.0401,0.0412,0.0446,0.0445,0.0394,0.0394,0,0,0,0.0391,0.0407,0.0412,0.0389,0.0401,0.0438,0.0443,0.0441,0.0439,0.0401,0.0411,0.0445,0.0445,0.0394,0.0394,0.0418,0,0,0,0.0389,0.0393,0.041,0.0411,0.0402,0.0436,0.045,0.044,0.0439,0.0412,0.0445,0.0444,0.0394,0.0394,0.0418,0.0436,0,0,0,0.0382,0.0393,0.0397,0.0411,0.0429,0.0437,0.0437,0.0441,0.0444,0.0446,0.0444,0.0394,0.0394,0.0417,0.0434,0.0407,0,0,0,0.0384,0.0401,0.0397,0.042,0.0428,0.0457,0.0437,0.047,0.0479,0.0445,0.0394,0.0394,0.0417,0.0434,0.0407,0.0389,0,0,0,0.0405,0.0404,0.0416,0.0413,0.0447,0.045,0.0473,0.048,0.0454,0.0392,0.0392,0.0418,0.0434,0.0407,0.0377,0,0,0,0,0.0422,0.0437,0.0446,0.0465,0.0473,0.0486,0.0495,0.0469,0.0442,0.0454,0.0407,0.0417,0.0399,0.0387,0.0393,0.0393,0.0393,0.0393,0.0393,0.0452,0.0458,0.0488,0.0502,0.0513,0.0512,0.0499,0.0459,0.0448,0.0432,0.0428,0.0415,0.0404,0.0414,0.0414,0.0414,0.0414,0.0415,0.0415,0.0503,0.0507,0.0523,0.057,0.0556,0.0578,0.0502,0.0486,0.0422,0.0424,0.0404,0.0404,0.0417,0.0416,0.0416,0.0416,0.0416,0.0415,0.0415,0.052,0.0514,0.0576,0.0619,0.065,0.0639,0.058,0.0535,0.0457,0.0433,0.0409,0.0419,0.0425,0.0432,0.0432,0.0432,0.0432,0.0432,0.0432,0.0498,0.0544,0.0598,0.0664,0.0705,0.0713,0.065,0.057,0.0497,0.0433,0.0453,0.042,0.042,0.0425,0.0431,0.0431,0.0431,0.0432,0.0432,0.0478,0.0504,0.0576,0.0635,0.0715,0.0708,0.0693,0.0549,0.0465,0.0386,0.0405,0.0407,0.039,0.039,0.0393,0.0391,0.0391,0.039,0,0.0437,0.0455,0.0547,0.0612,0.0641,0.0675,0.0569,0.0494,0.0401,0.0408,0.0417,0.0442,0.0442,0.0426,0.0426,0.0431,0,0,0,0.0409,0.0432,0.0483,0.0552,0.0606,0.0531,0.0526,0.0472,0.0471,0.0367,0.0385,0.0386,0.0405,0.043,0.0407,0.0406,0.0413,0,0]}]]